Ballina Observation History
Time Wind Speed Temp Pressure Rel. Hum Rain
02/03:30pm WNW 4-6 kts 23.0°c 1019.6 hPa 48% 0.0mm
02/03:00pm W 7-10 kts 22.6°c 1019.7 hPa 46% 0.0mm
02/02:30pm W 8-10 kts 22.9°c 1019.9 hPa 48% 0.0mm
02/02:00pm WNW 7-11 kts 22.8°c 1020.0 hPa 47% 0.0mm
02/01:30pm NW 7-10 kts 22.2°c 1020.2 hPa 51% 0.0mm
02/01:00pm WNW 9-12 kts 22.6°c 1020.3 hPa 50% 0.0mm
02/12:30pm WNW 7-9 kts 22.5°c 1020.6 hPa 47% 0.0mm
02/12:00pm NW 6-9 kts 22.3°c 1021.2 hPa 49% 0.0mm
02/11:30am NNW 4-7 kts 21.7°c 1021.8 hPa 50% 0.0mm
02/11:00am WNW 2-4 kts 21.5°c 1022.2 hPa 56% 0.0mm
02/10:30am NNW 4-6 kts 20.6°c 1022.5 hPa 60% 0.0mm
02/10:00am NNW 3-4 kts 19.7°c 1022.8 hPa 69% 0.0mm
02/09:30am WNW 3-5 kts 18.1°c 1023.0 hPa 73% 0.0mm
02/09:00am CALM 0 kts 15.7°c 1023.0 hPa 88% 0.0mm
02/08:30am W 1-3 kts 13.4°c 1023.0 hPa 96% n/a
02/08:00am W 1-3 kts 12.0°c 1022.8 hPa 96% n/a
02/07:30am WNW 3-6 kts 11.3°c 1022.6 hPa 97% n/a
02/07:00am CALM 0 kts 10.9°c 1022.3 hPa 97% n/a
02/06:30am CALM 0 kts 10.4°c 1022.1 hPa 97% n/a
02/06:00am CALM 0 kts 10.0°c 1021.8 hPa 97% n/a
02/05:51am CALM 0 kts 9.7°c 1021.7 hPa 97% n/a
02/05:30am CALM 0 kts 9.8°c 1021.8 hPa 97% n/a
02/05:06am CALM 0 kts 9.3°c 1021.3 hPa 96% n/a
02/05:00am CALM 0 kts 9.5°c 1021.3 hPa 96% n/a
02/04:30am CALM 0 kts 9.3°c 1021.1 hPa 95% n/a
02/04:00am N 1-3 kts 10.0°c 1020.9 hPa 96% n/a
02/03:30am N 1-3 kts 10.1°c 1020.9 hPa 95% n/a
02/03:00am N 3-4 kts 10.0°c 1020.8 hPa 93% n/a
02/02:30am N 5-6 kts 12.0°c 1021.0 hPa 94% n/a
02/02:00am N 5 kts 11.8°c 1021.3 hPa 94% n/a
02/01:30am NNW 4-5 kts 11.7°c 1021.6 hPa 94% 0.0mm
02/01:00am NNW 5 kts 12.3°c 1021.6 hPa 94% 0.0mm
02/12:30am NNW 5-6 kts 12.4°c 1021.7 hPa 94% 0.0mm
02/12:00am NNW 6-7 kts 12.9°c 1022.3 hPa 95% 0.0mm
Time Wind Speed Temp Pressure Rel. Hum Rain
01/11:30pm NNW 5-6 kts 12.2°c 1022.3 hPa 97% 0.0mm
01/11:00pm N 3-4 kts 12.0°c 1022.4 hPa 96% 0.0mm
01/10:45pm N 3 kts 11.7°c 1022.2 hPa 96% 0.0mm
01/10:30pm N 2-4 kts 10.9°c 1022.1 hPa 94% 0.0mm
01/10:26pm N 1-4 kts 10.7°c 1022.1 hPa 94% 0.0mm
01/10:00pm CALM 0-3 kts 12.2°c 1022.5 hPa 95% 0.0mm
01/09:30pm NNW 1-3 kts 12.1°c 1022.7 hPa 93% 0.0mm
01/09:00pm NNW 3-4 kts 13.0°c 1022.6 hPa 95% 0.0mm
01/08:30pm N 4-5 kts 12.8°c 1022.4 hPa 95% 0.0mm
01/08:00pm CALM 0 kts 12.4°c 1022.5 hPa 93% 0.0mm
01/07:30pm N 4 kts 13.1°c 1022.1 hPa 94% 0.0mm
01/07:00pm N 3 kts 13.2°c 1021.9 hPa 92% 0.0mm
01/06:30pm N 3-4 kts 13.5°c 1021.6 hPa 91% 0.0mm
01/06:00pm N 3-4 kts 14.4°c 1021.4 hPa 87% 0.0mm
01/05:30pm N 4-5 kts 15.9°c 1020.9 hPa 85% 0.0mm
01/05:00pm NNE 5-7 kts 16.4°c 1020.7 hPa 80% 0.0mm
01/04:30pm NNE 5-8 kts 17.9°c 1020.4 hPa 71% 0.0mm
01/04:00pm NNE 7-9 kts 18.7°c 1020.5 hPa 67% 0.0mm
01/03:30pm NE 8-11 kts 19.5°c 1020.3 hPa 63% 0.0mm
01/03:00pm ENE 9-12 kts 19.6°c 1020.5 hPa 58% 0.0mm
01/02:30pm ENE 7-11 kts 19.6°c 1020.6 hPa 51% 0.0mm
01/02:00pm ENE 8-11 kts 20.4°c 1020.7 hPa 58% 0.0mm
01/01:30pm ENE 9-12 kts 20.6°c 1020.9 hPa 50% 0.0mm
01/01:00pm E 6-9 kts 20.5°c 1021.2 hPa 54% 0.0mm
01/12:30pm E 4-7 kts 20.4°c 1021.5 hPa 58% 0.0mm
01/12:00pm NW 2-5 kts 20.7°c 1021.9 hPa 54% 0.0mm
01/11:30am WNW 1-5 kts 20.4°c 1022.3 hPa 56% 0.0mm
01/11:00am NNW 1-3 kts 19.8°c 1023.0 hPa 60% 0.0mm
01/10:30am CALM 0 kts 18.9°c 1023.6 hPa 72% 0.0mm
01/10:00am WSW 3-4 kts 17.7°c 1024.0 hPa 78% 0.0mm
01/09:30am WSW 5-8 kts 16.5°c 1024.1 hPa 81% 0.0mm
01/09:00am W 4-5 kts 15.5°c 1024.3 hPa 87% 0.0mm
01/08:30am CALM 0 kts 13.5°c 1024.2 hPa 97% 0.0mm
01/08:00am CALM 0 kts 11.3°c 1024.2 hPa 98% 0.0mm
01/07:30am CALM 0 kts 8.7°c 1024.1 hPa 97% 0.0mm
01/07:00am CALM 0 kts 7.9°c 1023.9 hPa 97% 0.0mm
01/06:52am CALM 0 kts 7.9°c 1023.8 hPa 97% 0.0mm
01/06:34am CALM 0 kts 7.7°c 1023.6 hPa 97% 0.0mm
01/06:32am CALM 0 kts 7.6°c 1023.6 hPa 97% 0.0mm
01/06:30am CALM 0 kts 7.6°c 1023.5 hPa 97% 0.0mm
01/06:01am CALM 0 kts 8.5°c 1023.3 hPa 97% 0.0mm
01/06:00am CALM 0 kts 8.3°c 1023.3 hPa 97% 0.0mm
01/05:56am CALM 0 kts 8.1°c 1023.2 hPa 97% 0.0mm
01/05:30am CALM 0 kts 8.1°c 1022.9 hPa 97% 0.0mm
01/05:10am CALM 0 kts 8.5°c 1022.7 hPa 97% 0.0mm
01/05:08am CALM 0 kts 8.5°c 1022.7 hPa 97% 0.0mm
01/05:00am CALM 0 kts 8.7°c 1022.7 hPa 97% 0.0mm
01/04:45am CALM 0 kts 8.8°c 1022.5 hPa 97% 0.0mm
01/04:32am CALM 0 kts 8.8°c 1022.4 hPa 97% 0.0mm
01/04:30am CALM 0 kts 8.9°c 1022.4 hPa 97% 0.0mm
01/04:09am CALM 0 kts 9.1°c 1022.4 hPa 97% 0.0mm
01/04:00am CALM 0 kts 9.0°c 1022.5 hPa 97% 0.0mm
01/03:30am CALM 0 kts 9.0°c 1022.8 hPa 97% 0.0mm
01/03:15am CALM 0 kts 9.3°c 1022.9 hPa 97% 0.0mm
01/03:00am CALM 0 kts 9.3°c 1023.0 hPa 97% 0.0mm
01/02:30am CALM 0 kts 8.8°c 1022.9 hPa 96% 0.0mm
01/02:16am CALM 0 kts 8.9°c 1022.9 hPa 96% 0.0mm
01/02:00am CALM 0 kts 8.9°c 1022.9 hPa 96% 0.0mm
01/01:30am CALM 0 kts 9.8°c 1023.0 hPa 96% 0.0mm
01/01:24am CALM 0 kts 10.0°c 1023.0 hPa 96% 0.0mm
01/01:03am CALM 0 kts 10.0°c 1023.2 hPa 96% 0.0mm
01/01:00am CALM 0 kts 10.1°c 1023.2 hPa 96% 0.0mm
01/12:30am CALM 0 kts 10.6°c 1023.5 hPa 97% 0.0mm
01/12:00am CALM 0 kts 10.5°c 1023.6 hPa 97% 0.0mm
Time Wind Speed Temp Pressure Rel. Hum Rain
30/11:30pm CALM 0 kts 10.5°c 1023.8 hPa 96% 0.0mm
30/11:00pm CALM 0 kts 10.6°c 1023.9 hPa 97% 0.0mm
30/10:30pm CALM 0-3 kts 10.7°c 1024.0 hPa 97% 0.0mm
30/10:28pm CALM 0 kts 10.2°c 1024.0 hPa 96% 0.0mm
30/10:00pm CALM 0 kts 10.2°c 1024.1 hPa 96% 0.0mm
30/09:50pm CALM 0-1 kts 10.7°c 1024.1 hPa 96% 0.0mm
30/09:30pm CALM 0-1 kts 10.9°c 1024.0 hPa 96% 0.0mm
30/09:22pm WSW 2-3 kts 10.4°c 1023.9 hPa 95% 0.0mm
30/09:00pm CALM 0 kts 11.3°c 1023.8 hPa 95% 0.0mm
30/08:57pm CALM 0 kts 11.3°c 1023.8 hPa 95% 0.0mm
30/08:31pm CALM 0 kts 11.8°c 1023.8 hPa 95% 0.0mm
30/08:30pm CALM 0 kts 11.8°c 1023.8 hPa 95% 0.0mm
30/08:11pm CALM 0 kts 12.2°c 1023.8 hPa 95% 0.0mm
30/08:00pm CALM 0 kts 12.5°c 1023.9 hPa 95% 0.0mm
30/07:30pm CALM 0 kts 13.0°c 1023.9 hPa 94% 0.0mm
30/07:00pm WSW 3-4 kts 13.2°c 1023.7 hPa 93% 0.0mm
30/06:30pm WSW 4-5 kts 13.3°c 1023.6 hPa 93% 0.0mm
30/06:00pm CALM 0-4 kts 13.6°c 1023.1 hPa 92% 0.0mm
30/05:30pm CALM 0 kts 14.4°c 1023.0 hPa 88% 0.0mm
30/05:00pm SSW 3-4 kts 16.4°c 1022.8 hPa 79% 0.0mm
30/04:30pm SSW 3-5 kts 17.4°c 1022.7 hPa 75% 0.0mm
30/04:00pm SSW 5-7 kts 18.2°c 1022.6 hPa 71% 0.0mm
30/03:30pm S 7-9 kts 18.6°c 1022.7 hPa 70% 0.0mm
30/03:00pm S 6-9 kts 18.1°c 1022.9 hPa 67% 0.0mm
30/02:30pm S 8-10 kts 18.9°c 1022.9 hPa 67% 0.0mm
30/02:00pm S 8-11 kts 18.8°c 1023.0 hPa 67% 0.0mm
30/01:30pm SSW 8-11 kts 19.3°c 1023.0 hPa 64% 0.0mm
30/01:00pm SSW 9-12 kts 18.6°c 1023.5 hPa 65% 0.0mm
30/12:30pm SW 8-11 kts 19.1°c 1024.0 hPa 68% 0.0mm
30/12:00pm SW 8-11 kts 18.3°c 1024.5 hPa 68% 0.0mm
30/11:30am SSW 8-12 kts 17.8°c 1025.0 hPa 73% 0.0mm
30/11:00am SW 7-11 kts 17.6°c 1025.2 hPa 73% 0.0mm
30/10:30am WSW 7-10 kts 16.9°c 1025.5 hPa 75% 0.0mm
30/10:00am WSW 9-11 kts 16.2°c 1025.6 hPa 78% 0.0mm
30/09:30am WSW 9-11 kts 15.9°c 1025.7 hPa 81% 0.0mm
30/09:00am WSW 8-11 kts 14.9°c 1025.7 hPa 83% 4.0mm
30/08:30am W 7-9 kts 13.8°c 1025.6 hPa 86% 4.0mm
30/08:00am W 6-8 kts 13.0°c 1025.5 hPa 92% 4.0mm
30/07:30am WSW 7-9 kts 11.7°c 1025.2 hPa 93% 4.0mm
30/07:00am NW 5-7 kts 10.7°c 1025.1 hPa 96% 4.0mm
30/06:30am W 4-5 kts 10.2°c 1024.9 hPa 96% 4.0mm
30/06:00am W 6-7 kts 10.3°c 1024.7 hPa 97% 4.0mm
30/05:30am WNW 5-7 kts 10.1°c 1024.3 hPa 97% 4.0mm
30/05:00am WNW 5-6 kts 9.4°c 1024.2 hPa 97% 4.0mm
30/04:30am WNW 3-4 kts 9.9°c 1024.1 hPa 97% 4.0mm
30/04:00am WNW 4-5 kts 10.1°c 1024.0 hPa 97% 4.0mm
30/03:39am NW 4-5 kts 10.8°c 1024.0 hPa 98% 4.0mm
30/03:30am WNW 4-5 kts 10.4°c 1024.0 hPa 97% 4.0mm
30/03:19am W 4-5 kts 9.7°c 1024.0 hPa 97% 3.8mm
30/03:01am W 3-4 kts 10.3°c 1024.1 hPa 97% 3.8mm
30/03:00am W 3-4 kts 10.2°c 1024.1 hPa 97% 3.8mm
30/02:30am CALM 0 kts 10.7°c 1024.4 hPa 96% 3.8mm
30/02:15am CALM 0 kts 10.4°c 1024.3 hPa 96% 3.8mm
30/02:00am WNW 1-3 kts 11.2°c 1024.5 hPa 96% 3.8mm
30/01:30am WSW 4-5 kts 10.9°c 1025.1 hPa 95% 3.8mm
30/01:00am W 5-7 kts 11.5°c 1025.4 hPa 95% 3.8mm
30/12:30am W 8-9 kts 12.2°c 1025.5 hPa 96% 3.8mm
30/12:00am WSW 6-7 kts 12.0°c 1025.6 hPa 94% 3.8mm